クリステンセン彗星

P/2006 S1 ( Christensen )

English version
Home page
Updated on February 4, 2007

---------------------------------------------------------------------

・ プロフィール

発見日 2006年9月16日
発見光度 17.4等
発見者 Eric J. Christensen (Catalina Sky Survey)

・ 写真集

・ 軌道要素

T 2006 Aug. 30.1833 TT                                  MPC
q   1.359263             (2000.0)            P               Q
n   0.1508238      Peri.  128.0484      +0.9401084      +0.3212627
a   3.495340       Node   213.6533      -0.3396175      +0.9114446
e   0.611121       Incl.   11.8669      +0.0292615      +0.2570194
P   6.53
From 272 observations 2006 Sept. 16-Oct. 28.

・ 光度変化

        m1 = 18.0 + 5 logΔ + 10.0 log r

---------------------------------------------------------------------

軌道要素はM.P.E.C. 2006-U85に掲載されたものです。
光度グラフはComet for Windowsで作成したものです。

---------------------------------------------------------------------

Copyright(C) Seiichi Yoshida (comet@aerith.net). All rights reserved.